Location: ?
(35.6144°N, 139.6873°E)
Time: 15:25:54
(UTC+00:00)

Cosmos 1933 - Pass Details

Date: 23 May 2024
Orbit: 533 x 539 km, 82.5° (Epoch: 15 June)

Event Time Altitude Azimuth Distance (km) Brightness Sun altitude
Rises 10:52:29 0° 198° (SSW) 2,676 6.6 -12.4°
Reaches altitude 10° 10:54:41 10° 205° (SSW) 1,790 5.8 -12.8°
Maximum altitude 10:58:29 46° 279° (W) 728 4.4 -13.4°
Drops below altitude 10° 11:02:19 10° 354° (N) 1,806 6.6 -14.0°
Sets 11:04:33 0° 0° (N) 2,703 7.4 -14.3°
